Regional Weather Roundup
Issued by NWS Kansas City/Pleasant Hill, MO

Home | Current Version | Previous Version | Graphics & Text | Print | Product List | Glossary Off
Versions: 1 2 3 4 5 6 7 8 9 10 11 12 13 14 15 16 17 18 19 20 21 22 23 24 25 26 27 28

000
ASUS43 KEAX 171510
RWREAX

WEATHER ROUNDUP FOR EASTERN KANSAS AND NORTHWEST MISSOURI
NATIONAL WEATHER SERVICE KANSAS CITY/PLEASANT HILL MO
1000 AM CDT TUE OCT 17 2017

KSZ040-057-103>105-MOZ028-029-037-043-171600-
...KANSAS CITY METROPOLITAN AREA...

CITY           SKY/WX    TMP DP  RH WIND       PRES   REMARKS
K.C. INTL      MOSUNNY   59  43  55 S15       30.21S
K.C. DOWNTOWN  SUNNY     60  43  53 S10       30.22F
LEES SUMMIT    SUNNY     58  43  57 S13       30.24S
OLATHE - IXD   SUNNY     56  44  64 S10       30.23S
OLATHE - OJC   SUNNY     56  42  59 SW10      30.24R
LAWRENCE       SUNNY     59  44  57 S8        30.22S

$$

MOZ001>008-011>017-020>025-030>033-038>040-044>046-053-054-171600-
...NORTHERN AND CENTRAL MISSOURI...

CITY           SKY/WX    TMP DP  RH WIND       PRES   REMARKS
ST. JOSEPH     SUNNY     60  44  55 S13       30.19S
MOSBY          SUNNY     57  43  58 S6        30.23F
WARRENSBURG    SUNNY     57  43  58 S9        30.26F
WHITEMAN AFB   MOSUNNY   56  46  69 S9        30.23R
CLINTON        MOSUNNY   55  45  67 S8        30.28F
SEDALIA        MOSUNNY   57  45  64 S12       30.28S
WARSAW         NOT AVBL
CHILLICOTHE      N/A     57  44  62 S9G20     30.24S
KIRKSVILLE     SUNNY     58  44  60 SW10      30.25S

$$

MOZ041-047>049-056>058-063>065-088>090-097-171600-
...EASTERN AND SOUTHERN MISSOURI...

CITY           SKY/WX    TMP DP  RH WIND       PRES   REMARKS
ST. LOUIS INTL PTSUNNY   58  39  49 SW10      30.34R
SPIRIT OF STL  PTSUNNY   58  42  55 SW7       30.33R
COLUMBIA       MOSUNNY   55  45  68 S10       30.29S
JEFFERSON CITY MOSUNNY   54  41  61 S7        30.31S
ROLLA          CLOUDY    56  40  55 S13       30.34R
OSAGE BEACH    PTSUNNY   51  43  74 SE6       30.33R
SPRINGFIELD    SUNNY     56  44  64 S12       30.31S
BRANSON        PTSUNNY   55  39  54 S7        30.35R
JOPLIN         SUNNY     58  45  62 S13       30.30R
WEST PLAINS    SUNNY     57  37  47 S14       30.37R

$$

IAZ060-094-KSZ022-034>040-054-083-096-NEZ052-066-093-171600-
...KANSAS...SOUTHEAST NEBRASKA AND IOWA...

CITY           SKY/WX    TMP DP  RH WIND       PRES   REMARKS
TOPEKA         SUNNY     60  43  53 S12G18    30.19S
MANHATTAN      SUNNY     61  43  51 SW16      30.15F
EMPORIA        SUNNY     57  42  57 S15G23    30.20F
CHANUTE        SUNNY     57  46  66 S12       30.27R
WICHITA        SUNNY     57  44  62 S17       30.20R
OMAHA          SUNNY     54  43  66 S9        30.12S
LINCOLN        SUNNY     56  42  59 SW9       30.13R
FALLS CITY     SUNNY     57  42  57 S9        30.16R
LAMONI         SUNNY     57  43  59 SW17      30.17S
DES MOINES     MOSUNNY   58  42  55 SW14G24   30.13S

$$





USA.gov is the U.S. government's official web portal to all federal, state and local government web resources and services.